Regional Weather Roundup
Issued by NWS Charleston, SC

Current Version | Previous Version | Graphics & Text | Print | Product List | Glossary On
Versions: 1 2 3 4 5 6 7 8 9 10 11 12 13 14 15 16 17 18 19 20 21 22 23 24 25 26 27 28 29 30 31 32 33 34 35 36 37 38 39 40 41 42 43 44 45 46 47 48 49 50
000 ASUS42 KCHS 042312 RWRCHS REGIONAL WEATHER ROUNDUP NATIONAL WEATHER SERVICE CHARLESTON SC 600 PM EST SUN DEC 04 2016 NOTE: "FAIR" INDICATES FEW OR NO CLOUDS BELOW 12,000 FEET WITH NO SIGNIFICANT WEATHER AND/OR OBSTRUCTIONS TO VISIBILITY. NOT ALL STATIONS ARE QUALITY CONTROLLED. USE DATA WITH CAUTION... ESPECIALLY DEWPOINT OBSERVATIONS. SCZ027-030-031-034>040-042>050-050000- ...SOUTHEAST SOUTH CAROLINA... CITY SKY/WX TMP DP RH WIND PRES REMARKS N CHARLESTON CLOUDY 57 48 72 E10 30.08F WATERFRONT PRK N/A 57 53 86 NE15 30.08F MOUNT PLEASANT NOT AVBL JOHNS ISLAND CLOUDY 57 52 82 NE12 30.08F PINOPOLIS N/A 50 45 81 E7 30.03F MONCKS CORNER CLOUDY 48 43 81 E6 30.10F SUMMERVILLE CLOUDY 52 46 82 NE5 30.10S BEAUFORT MCAS CLOUDY 60 54 80 NE5 30.06F BEAUFORT ARPT CLOUDY 59 54 82 E10 30.05F HILTON HEAD IS CLOUDY 63 57 82 NE5 30.05F WALTERBORO CLOUDY 54 50 87 NE5 30.09S ALLENDALE CLOUDY 50 48 93 VRB5 30.07F ...SOUTHERN MIDLANDS AND PEE DEE... CITY SKY/WX TMP DP RH WIND PRES REMARKS GEORGETOWN NOT AVBL KINGSTREE DRIZZLE 45 41 87 CALM 30.13F ORANGEBURG LGT RAIN 47 44 90 NE7 30.11S BARNWELL NOT AVBL AIKEN LGT RAIN 43 43 100 NE9 30.11F MANNING NOT AVBL COLUMBIA LGT RAIN 47 43 86 E9 30.11F SUMTER LGT RAIN 45 42 90 NE9 30.10F FLORENCE LGT RAIN 46 43 89 NE7 30.14F MYRTLE BEACH CLOUDY 52 37 58 NE8 30.15F N MYRTLE BEACH CLOUDY 48 41 76 NE8 30.13F $$ GAZ063-065-086>088-099>101-113>116-118-119-134>141-150-050000- ...SOUTHEAST GEORGIA... CITY SKY/WX TMP DP RH WIND PRES REMARKS SAVANNAH ARPT LGT RAIN 61 55 81 NE8 30.04F HUNTER AAF CLOUDY 63 61 94 NE3 30.01F FORT STEWART CLOUDY 63 57 80 E3 29.99F STATESBORO CLOUDY 58 52 80 NE7 30.04F SYLVANIA CLOUDY N/A N/A N/A NE7 30.06F CLAXTON CLOUDY 60 58 92 NE7 30.02F ...CSRA...CENTRAL AND FAR SOUTHEAST GEORGIA... CITY SKY/WX TMP DP RH WIND PRES REMARKS THOMSON CLOUDY 46 46 100 CALM 30.12S AUGUSTA-BUSH LGT RAIN 48 44 86 NE8 30.07F FOG AUGUSTA-DANIEL LGT RAIN 47 43 86 NE9 30.08F SWAINSBORO CLOUDY 52 46 82 E3 30.05S VIDALIA CLOUDY 63 59 88 E3 30.03R EASTMAN CLOUDY 57 41 55 NE3 30.02F HAZLEHURST CLOUDY 66 61 83 E5 29.99R ALMA MOCLDY 67 62 84 CALM 29.99S WAYCROSS MOCLDY 73 65 78 SE5 29.99R JESUP FAIR 64 63 94 E3 30.00F BAXLEY FAIR 66 64 94 E3 30.00R BRUNSWICK CLOUDY 70 64 83 SE6 30.02S SAINT SIMONS CLOUDY 67 62 84 SE6 30.02S $$ SCZ027-028-034-036>038-045-046-048>050-GAZ119-141-050000- ...LAKE AND SUPPLEMENTAL COASTAL OBSERVATIONS... STATION/POSITION TIME TEMP WIND PRES WAVE SWELL AIR SEA DIR/SP/G HT/PER HT/PER/DIR (UTC) (F) (DEG/KT/KT) (MB) (FT/S) (FT/S/D) WINYAH BAY 2145 53 60/ 12 1020.0 LAKE MURRAY 2220 46 40/ 3/ 6 1019.6 ACE BASIN NERRS 2145 60 60/ 4 1018.0 FORT PULASKI 2236 63 62 70/ 7/ 8 1017.3F SAPELO ISLAND 2200 69 130/ 7 1017.0 $$ ANZ835-935-AMZ111-154-330-350-352-354-370-450-454-472-050000- ...C-MAN AND BUOY OBSERVATIONS... STATION/POSITION TIME TEMP WIND PRES WAVE SWELL AIR SEA DIR/SP/G HT/PER HT/PER/DIR (UTC) (F) (DEG/KT/KT) (MB) (FT/S) (FT/S/D) BUOY 41004 2250 70 75 140/ 14/ 16 1018.4F 4/ 5 2/100/ 8 BUOY 41008 2250 68 65 120/ 12/ 14 1016.3F 4/ 5 2/ 90/ 8 FOLLY BEACH CMAN 2200 58 50/ 20/ 22 1019.4F CAPERS NEARSHORE 2208 59 61 60/ 19/ 27 1018.9F FRIPP NEARSHORE 2208 62 62 50/ 12/ 16 1017.8F STATION/POSITION TIME TEMP WIND PRES WAVE SWELL AIR SEA DIR/SP/G HT/PER HT/PER/DIR (UTC) (F) (DEG/KT/KT) (MB) (FT/S) (FT/S/D) 5E ST. MARYS GA 2300 66 N/A 3/ 5 FRYING PAN BUOY 2250 62 74 50/ 17/ 21 1020.6S 4/ 5 2/ 70/ 9 BUOY 41025 2250 55 75 40/ 8/ 12 1022.7F 4/ 9 3/ 40/ 9 CAPE LOOKOUT NC 2200 49 10/ 8/ 10 1022.6F BUOY 41002 2250 66 73 110/ 8/ 10 1021.4F 4/10 3/10 BUOY 41010 NOT AVBL ST AUGUSTINE FL 2300 70 68 150/ 16/ 17 1017.2S $$

USA.gov is the U.S. government's official web portal to all federal, state and local government web resources and services.